Location: Unspecified
(33.6682°S, 0.0000°E)
Time: 02:32:39
(UTC+00:00)

Vanguard 1 - Pass Details

Date: 27 June 2019
Orbit: 653 x 3830 km, 34.3° (Epoch: 22 July)

Event Time Altitude Azimuth Distance (km) Brightness Sun altitude
Rises 19:32:58 0° 256° (WSW) 5,142 14.7 -30.8°
Reaches altitude 10° 19:35:51 10° 260° (W) 4,483 14.2 -31.3°
Maximum altitude 19:48:48 53° 332° (NNW) 3,395 12.7 -34.0°
Drops below altitude 10° 20:09:42 10° 41° (NE) 6,868 14.0 -38.3°
Enters shadow 20:10:40 - 42° (NE) 7,052 14.1 -38.5°
